Regional Weather Roundup
Issued by NWS

Home | Current Version | Previous Version | Text Only | Print | Product List | Glossary On
Versions: 1 2 3 4 5 6 7 8 9 10 11 12 13 14 15 16 17 18 19 20 21 22 23 24 25 26 27 28 29 30 31 32 33 34 35 36 37 38 39 40 41 42 43 44 45 46 47 48 49 50
000
ASUS43 KIND 100309
RWRIN

WEATHER ROUNDUP FOR INDIANA
NATIONAL WEATHER SERVICE INDIANAPOLIS IN
1000 PM EST FRI DEC 09 2016

NOTE: "FAIR" INDICATES FEW OR NO CLOUDS BELOW 12,000 FEET WITH NO
SIGNIFICANT WEATHER AND/OR OBSTRUCTIONS TO VISIBILITY.

* - STATION DOES NOT REPORT WEATHER SUCH AS PRECIPITATION OR FOG.

+ - STATION NOT QUALITY CONTROLLED BY THE NATIONAL WEATHER SERVICE.
    USE DATA WITH CAUTION...ESPECIALLY DEWPOINT AND RELATIVE
    HUMIDITY OBSERVATIONS.

INZ001>003-010>013-019-020-100400-
NORTHWEST INDIANA

CITY           SKY/WX    TMP DP  RH WIND       PRES   REMARKS
GARY /AIRPORT/ PTCLDY    21  14  73 W8        30.53F WCI  12
KNOX *+        CLOUDY    21  -2  35 W9        30.52S WCI  11
LA PORTE +     CLOUDY    21  13  71 W10G16    30.50S WCI  10
MICHIGAN CITY+ CLOUDY    23  16  74 SW8       30.50S WCI  14
MONTICELLO +   CLOUDY    23   9  55 NW9       30.52S WCI  13
RENSSELAER +     N/A     25  18  74 W7        30.52F WCI  17
VALPARAISO     CLEAR     19  11  70 SW6       30.51F WCI  11

$$

LMZ046-743>745-100400-
SOUTHERN LAKE MICHIGAN

STATION/POSITION TIME  TEMP    WIND        PRES    WAVE
                       AIR SEA DIR/SP/G            HT
                 (UTC) (F)     (DEG/KT/KT) (MB)    (FT)

$$

INZ004-005-014>016-021>024-100400-
NORTH CENTRAL INDIANA

CITY           SKY/WX    TMP DP  RH WIND       PRES   REMARKS
GOSHEN         CLOUDY    23  13  65 W15       30.47S WCI  10
LOGANSPORT +   CLOUDY    23  14  68 W6        30.53S WCI  16
PERU/GRISSOM   FLURRIES  23  14  67 W9        30.49F WCI  13
ROCHESTER +    CLOUDY    27  18  69 W7        30.51S WCI  19
SOUTH BEND     CLOUDY    20  14  77 SW13      30.48S WCI   7
WARSAW +       CLOUDY    23  12  63 W13       30.49S WCI  11

$$

INZ006>009-017-018-025>027-100400-
NORTHEAST INDIANA

CITY           SKY/WX    TMP DP  RH WIND       PRES   REMARKS
ANGOLA *+      CLOUDY    23  18  80 W10       30.43F WCI  12
AUBURN +       CLOUDY    25  14  63 W7        30.47S WCI  17
FORT WAYNE     CLOUDY    24  13  62 W13       30.49F WCI  12
HUNTINGTON +   CLOUDY    23  16  75 W7        30.50S WCI  15

$$

INZ028-029-035-036-043>045-051>053-100400-
WEST CENTRAL INDIANA

CITY           SKY/WX    TMP DP  RH WIND       PRES   REMARKS
CRAWFORDSVL +  CLOUDY    21  17  84 W5        30.52F WCI  14
GREENCASTLE +  CLOUDY    23  19  86 NW3       30.53F
LAFAYETTE      CLOUDY    23  17  78 NW5       30.53F WCI  17
TERRE HAUTE    CLOUDY    24  17  74 NW3       30.56S

$$

INZ030>032-037>040-046>048-054>057-064-065-100400-
CENTRAL INDIANA

CITY           SKY/WX    TMP DP  RH WIND       PRES   REMARKS
CP ATTERBURY + CLOUDY    23  18  80 SW3       30.54F
COLUMBUS       PTCLDY    21  18  86 W5        30.54F WCI  15
FRANKFORT +    CLOUDY    26  18  71 NW6       30.52F WCI  20
GREENWOOD *+   CLOUDY    25  17  71 W5        30.52F WCI  19
INDIANAPOLIS   PTCLDY    20  14  77 W7        30.51F WCI  11
-EAGLE CREEK   CLEAR     23  15  71 W3        30.51F
KOKOMO +       FLURRIES  23  16  74 MISG      30.51F
MARION +       CLOUDY    23  19  83 W9        30.51F WCI  13
MT COMFORT *+  PTCLDY    19  16  86 NW3       30.51F
SHELBYVILLE    MOCLDY    23  16  74 SW6       30.51F WCI  16
ZIONSVILLE +   FLURRIES  23  18  83 W3        30.51F

$$

INZ033-034-041-042-049-050-058-059-100400-
EAST CENTRAL INDIANA

CITY           SKY/WX    TMP DP  RH WIND       PRES   REMARKS
MUNCIE         CLOUDY    24  19  81 W5        30.50F WCI  18

$$

INZ060-061-067>069-081>083-085>088-100400-
SOUTHWEST INDIANA

CITY           SKY/WX    TMP DP  RH WIND       PRES   REMARKS
EVANSVILLE     CLEAR     22  15  75 CALM      30.59S
HUNTINGBURG *+ MOCLDY    23  15  71 CALM      30.57F
WASHINGTON +   CLEAR     23  21  92 CALM      30.57S

$$

INZ062-063-066-070>080-084-089>092-100400-
SOUTH CENTRAL AND SOUTHEAST INDIANA

CITY           SKY/WX    TMP DP  RH WIND       PRES   REMARKS
BLOOMINGTON    CLOUDY    22  16  78 W5        30.53F WCI  16
MADISON *+     PTCLDY    25  16  68 CALM      30.55F
NORTH VERNON + PTCLDY    23  21  93 CALM      30.54F
SEYMOUR +      PTCLDY    23  16  74 SW3       30.55F

$$





USA.gov is the U.S. government's official web portal to all federal, state and local government web resources and services.